Theta_e
312 312 312 312 312 312 311 309 307 306 306 306 306 306 306 306 306 307 308 310 311 312 314 315 317 319 319 318 318 317 316 316 314 311 311 310 309 309 309 308 308 309 310 311 311 311 311 311 312 312 312 312 312 313 313 313 314 315 314 312 311 310 309 308 307 307 305 303 304 304 304 303 302 302 302 303 303 303 302 301 301 302 302 302 302 302 301 301
311 312 312 312 313 312 311 309 308 306 306 307 307 307 307 307 308 309 310 312 312 313 314 315 317 319 319 318 317 316 314 314 312 311 312 311 309 309 309 309 309 309 310 311 311 311 312 312 312 312 312 311 312 312 312 312 312 312 312 311 311 310 309 308 307 306 305 304 305 305 304 304 303 303 303 303 303 303 303 302 302 302 301 301 301 301 301 301
310 311 311 312 313 312 310 309 308 306 307 307 308 309 310 310 310 311 311 312 312 313 314 316 318 319 319 317 316 314 313 312 312 312 312 312 310 309 310 309 309 310 310 311 311 312 312 312 311 311 311 310 311 311 311 311 311 311 310 310 310 309 309 308 307 306 305 305 305 304 304 304 303 303 303 304 303 303 304 303 303 302 301 301 300 301 301 300
310 310 311 312 313 312 310 309 308 307 308 309 310 311 312 312 312 312 312 313 312 313 315 317 319 319 317 316 315 314 314 312 312 311 312 312 311 310 310 310 310 310 310 310 311 312 312 312 311 310 310 310 310 310 310 311 311 310 308 309 309 308 308 307 306 305 305 305 304 304 303 303 303 303 303 304 304 304 305 304 303 303 302 301 301 301 300 301
310 310 310 311 312 312 311 310 309 309 310 311 312 312 312 313 313 313 313 313 313 313 316 318 318 317 317 316 316 315 316 315 312 311 312 312 312 310 310 310 311 311 310 310 311 312 312 312 312 311 311 310 310 309 309 309 310 309 308 308 308 307 306 305 305 304 305 304 304 304 304 303 303 303 303 304 304 304 305 304 304 304 303 302 301 301 301 301
309 310 310 310 311 312 312 311 310 309 310 312 312 312 312 312 313 313 313 313 313 314 316 317 317 317 317 317 316 316 316 315 311 311 312 311 312 311 310 310 310 310 309 310 311 312 312 312 312 311 310 310 309 309 309 308 308 308 307 307 307 306 305 304 304 304 304 305 305 304 304 304 304 304 304 304 304 303 303 303 303 303 303 302 302 302 301 302
309 310 310 309 310 312 312 311 311 310 311 311 312 312 312 312 312 313 313 313 314 315 316 317 317 317 317 316 316 315 313 311 310 311 311 311 312 311 310 310 309 309 310 311 312 312 312 311 311 310 310 309 308 308 308 308 308 307 306 306 305 305 304 303 303 303 304 304 304 304 304 304 304 305 304 303 304 303 303 303 303 303 303 303 302 302 302 302
309 310 309 309 310 311 312 311 311 311 311 311 311 311 312 312 312 312 313 314 314 315 316 316 317 317 317 316 314 313 310 309 310 311 311 311 311 311 310 310 309 309 310 311 312 312 311 311 310 310 309 308 308 308 307 307 306 306 305 305 304 304 303 303 303 303 303 303 303 304 305 305 304 304 303 304 304 303 303 303 303 303 303 302 302 302 302 302
309 310 310 309 309 310 311 312 311 311 311 311 311 311 312 312 312 313 313 314 314 315 316 316 316 316 316 314 313 312 308 308 310 310 310 311 310 311 310 310 309 309 310 311 311 311 311 311 310 310 309 308 308 308 308 308 306 305 305 304 304 304 303 303 304 303 304 304 303 304 305 304 304 303 304 305 304 304 304 304 303 303 302 302 302 302 302 302
310 310 310 309 308 310 312 312 311 311 310 311 312 312 312 312 312 312 313 314 315 315 316 316 316 316 314 313 312 311 308 308 309 310 310 310 309 310 310 310 309 309 310 310 311 311 311 310 310 309 309 308 308 307 308 307 306 305 305 304 304 304 304 304 304 303 304 304 304 305 306 305 304 303 305 305 304 304 304 303 303 303 303 302 302 302 302 302
309 310 310 309 309 311 312 312 311 311 310 311 312 312 312 311 311 312 313 314 314 315 315 316 316 315 315 313 311 309 308 308 309 309 309 309 309 309 309 309 309 310 309 310 310 310 310 310 310 310 309 308 307 306 306 306 305 305 305 304 304 305 304 305 305 304 304 304 304 304 305 305 304 304 305 305 304 304 304 303 303 303 303 302 302 302 302 302
309 310 310 309 309 310 312 312 311 311 311 311 312 312 312 311 311 311 312 313 314 314 315 316 315 315 314 311 308 306 307 308 308 308 308 309 309 309 309 309 309 310 309 310 310 309 309 310 310 310 308 307 306 306 306 305 305 305 306 305 305 305 305 305 305 305 305 305 304 304 305 306 305 305 305 305 305 304 303 303 303 303 303 303 303 302 302 302
308 309 309 309 308 309 310 311 311 312 311 312 312 312 312 311 311 310 311 312 313 314 314 315 313 313 313 309 306 306 307 307 307 308 308 308 308 308 309 309 309 309 309 310 309 309 310 310 310 310 308 307 306 306 306 305 306 306 307 306 306 307 306 305 306 305 305 305 304 304 309 309 305 305 306 305 305 303 303 303 303 303 303 303 303 303 303 303
308 309 309 308 308 309 309 310 310 311 312 312 312 312 312 311 311 310 311 312 312 312 313 312 312 313 310 307 305 306 307 307 307 307 308 308 308 308 308 309 309 309 309 309 309 309 309 310 310 309 308 307 306 306 306 306 306 307 307 308 309 310 308 306 306 305 305 305 304 304 310 310 306 306 306 305 305 304 304 303 304 304 303 303 303 303 303 303
308 308 308 308 308 309 309 309 309 310 312 312 312 312 312 311 310 310 310 311 311 311 311 311 311 311 308 306 305 306 306 307 307 307 308 308 308 308 308 308 309 308 308 309 309 309 309 310 310 308 307 307 307 307 307 307 307 307 309 311 312 312 309 306 306 306 306 306 304 305 309 310 307 306 305 305 304 304 304 304 304 304 304 304 303 304 303 303
307 307 308 308 308 308 309 308 308 310 311 312 312 312 311 310 310 310 310 310 310 310 310 311 310 310 309 307 307 306 306 306 307 307 307 308 308 308 308 308 308 308 308 308 308 308 309 309 309 307 307 307 308 310 309 310 309 307 310 313 313 312 310 307 305 305 306 306 305 306 308 308 307 306 305 305 304 304 304 304 304 305 305 304 304 304 304 304
307 308 308 308 308 308 308 308 309 309 310 311 312 311 311 310 310 310 309 310 310 310 310 310 309 310 309 308 307 306 306 306 306 307 307 307 308 308 308 308 308 307 308 308 309 309 310 311 310 309 309 309 310 312 313 314 313 311 312 313 311 310 309 308 306 305 305 306 306 306 306 307 307 306 305 305 304 304 304 304 305 305 305 305 305 304 304 304
308 307 308 308 308 308 308 309 309 309 310 310 311 310 310 310 310 309 309 309 309 309 311 309 311 314 310 309 309 306 306 306 306 307 307 307 307 307 308 308 309 311 310 309 310 311 312 313 313 312 312 310 309 312 316 315 313 313 313 312 310 308 308 309 308 305 305 306 307 307 307 308 308 306 305 305 305 304 304 304 305 305 306 305 305 305 304 304
308 308 308 308 308 308 309 309 309 309 310 310 310 309 309 309 309 309 309 310 310 313 317 313 314 319 314 309 308 306 306 307 306 307 307 307 307 308 308 308 310 313 315 315 312 312 315 316 318 319 314 309 306 308 311 310 309 310 312 312 312 310 308 308 307 305 305 307 307 308 308 310 310 307 305 305 305 304 305 305 305 305 305 306 306 305 305 305
308 308 308 308 308 309 309 309 309 309 309 309 309 309 310 310 310 309 309 311 311 311 314 312 311 313 310 307 306 306 307 307 307 307 307 307 307 308 308 309 311 311 315 318 316 313 315 317 317 316 310 306 305 305 305 306 307 309 311 313 313 312 309 307 307 304 305 308 309 309 310 310 310 309 307 305 305 304 305 305 305 305 305 306 306 306 306 305
307 308 308 308 308 308 309 309 309 309 309 309 309 312 314 312 312 311 308 309 309 308 309 309 309 308 307 306 307 307 308 308 307 307 307 307 308 311 311 313 316 314 312 314 316 315 316 318 314 308 306 304 304 305 305 307 309 310 312 313 314 314 310 307 306 305 305 308 310 309 310 311 310 310 307 305 305 304 305 306 305 306 306 306 306 306 306 306
307 308 308 308 308 308 308 309 309 309 309 309 310 313 314 313 312 311 309 309 308 308 308 307 307 307 306 307 307 308 309 310 309 307 307 307 309 313 313 314 317 315 313 315 318 316 317 316 309 305 303 303 304 305 306 307 310 313 314 315 315 314 311 307 306 305 305 308 311 309 310 312 310 309 307 306 306 306 306 306 306 306 306 306 307 307 307 307
308 308 308 308 308 308 308 309 309 309 309 309 309 310 312 311 309 309 309 309 308 307 308 308 307 307 307 307 307 309 310 310 310 308 307 307 308 312 315 315 317 316 316 321 323 321 320 313 305 303 303 304 307 307 308 309 311 315 317 317 316 313 312 310 307 306 306 308 308 308 310 313 311 309 308 307 307 307 308 307 307 307 307 307 307 307 307 307
308 308 308 308 307 308 308 308 308 309 308 309 309 309 310 309 309 310 309 310 310 308 306 307 307 307 307 307 307 309 308 307 307 307 306 308 309 312 313 314 317 316 315 320 322 319 315 307 302 304 304 305 309 310 310 313 314 316 316 315 314 312 309 309 309 308 308 308 307 309 313 314 312 311 310 308 306 307 307 307 307 307 307 307 306 307 307 306
308 308 308 307 308 308 308 308 309 309 309 309 309 308 309 309 310 311 310 312 313 310 309 309 308 308 307 307 308 308 308 307 306 307 306 307 310 311 311 311 315 316 315 317 316 313 309 303 302 306 307 308 312 312 311 313 317 316 312 311 310 309 308 309 311 311 312 312 310 312 316 316 314 314 312 310 308 308 307 307 307 308 307 307 307 307 307 307
308 308 307 307 308 307 308 309 309 309 309 309 309 308 308 310 310 311 315 318 314 312 314 313 312 311 307 308 308 308 313 310 305 306 307 307 308 311 313 311 311 314 314 313 313 312 308 303 303 306 309 311 314 314 310 310 317 316 310 308 307 307 310 312 313 314 314 315 312 312 316 317 316 315 313 312 311 311 309 308 309 309 308 308 308 308 307 307
308 307 308 308 308 308 310 311 309 309 309 308 309 308 309 311 310 311 315 316 313 314 316 314 313 312 308 307 307 310 316 312 307 307 306 307 307 310 316 315 312 311 308 311 316 312 307 307 307 308 310 313 316 315 309 308 316 317 309 306 308 308 310 312 313 316 316 314 314 313 314 316 316 315 314 313 313 313 312 310 309 309 309 308 308 307 307 307
308 307 308 308 308 309 312 311 309 309 309 308 309 308 311 311 309 314 317 313 311 314 315 313 311 309 307 306 306 309 312 312 314 312 305 307 308 310 315 313 311 311 306 314 323 311 305 310 310 310 312 314 313 310 305 307 314 314 306 306 308 308 309 310 313 317 315 314 316 315 314 315 316 315 314 315 315 314 313 312 310 309 310 309 309 308 307 307
308 308 308 308 308 310 310 310 309 309 308 308 309 310 312 311 310 317 318 311 311 313 313 311 310 309 309 309 309 309 309 309 313 310 305 308 309 310 313 309 309 311 307 313 320 309 303 305 305 309 314 312 308 305 303 306 312 309 304 306 308 307 309 310 312 315 314 315 317 315 313 315 317 317 317 317 316 313 312 312 311 310 309 309 309 308 307 307
308 308 308 308 309 309 310 309 309 309 308 308 310 311 311 311 316 319 313 310 314 313 310 312 313 312 312 313 312 311 311 309 308 308 307 308 307 308 311 309 310 312 310 309 311 307 303 303 304 305 308 307 304 304 303 304 307 306 306 311 312 311 312 312 312 314 315 317 316 311 310 312 316 318 317 316 314 312 312 311 310 309 309 309 308 308 308 308
308 308 308 309 309 309 309 309 309 308 308 310 312 311 312 316 320 319 311 310 316 313 310 312 313 312 313 316 315 313 312 310 308 311 313 310 308 310 312 313 312 313 315 314 312 307 306 307 306 302 302 304 305 306 305 302 303 307 311 314 317 317 314 313 314 315 318 319 315 310 309 311 316 318 315 314 312 311 311 310 310 310 309 309 309 309 309 309
308 308 308 308 309 309 309 309 310 308 308 311 311 312 317 319 317 317 314 312 315 315 313 314 313 312 314 316 316 314 314 313 310 313 316 314 313 315 315 316 316 315 316 318 316 313 312 310 306 303 301 302 306 311 310 307 306 309 313 315 319 320 316 316 318 319 320 319 312 309 310 314 318 317 314 313 312 311 310 310 310 309 309 309 309 309 309 309
308 308 308 308 308 308 309 310 310 308 309 311 312 314 318 317 315 316 314 312 314 314 313 314 313 313 315 316 315 312 313 316 314 312 313 313 315 317 314 312 315 319 316 316 317 316 315 312 307 307 306 301 305 313 316 315 312 312 314 316 319 320 318 318 319 318 319 318 313 309 312 317 317 316 314 313 312 311 310 310 310 310 310 309 309 310 309 309
308 308 308 308 309 309 309 310 309 309 309 309 313 316 316 315 315 315 314 312 312 311 311 312 312 313 316 317 314 311 314 316 313 313 313 312 312 316 318 315 313 319 317 314 315 313 315 316 311 309 308 303 303 308 310 310 312 314 312 313 317 318 317 319 320 320 319 319 316 311 314 319 317 316 315 312 311 310 310 310 310 310 310 310 310 310 309 309
308 308 309 309 310 309 309 310 310 310 308 309 314 318 315 314 315 317 315 312 312 312 312 312 313 313 314 314 312 311 314 315 313 314 314 312 313 314 319 320 314 316 317 313 314 312 313 316 309 304 304 303 304 304 302 306 313 313 310 314 317 314 316 320 318 317 319 320 319 316 318 319 316 315 313 310 310 310 310 310 310 310 310 310 311 310 309 309
308 308 309 309 309 310 310 310 310 310 308 311 316 318 317 315 316 319 317 313 313 314 314 314 314 313 312 313 313 311 311 313 314 316 313 311 315 316 317 317 312 313 315 314 315 313 312 314 307 303 303 301 302 302 300 305 312 312 312 315 313 307 314 322 317 313 316 320 320 317 318 317 315 315 312 311 311 310 309 310 310 311 311 311 311 310 309 309
308 308 309 309 309 310 310 309 310 309 308 313 318 317 316 314 313 315 315 313 313 313 315 317 314 314 314 312 313 314 312 313 314 315 314 311 313 317 319 315 309 309 311 312 315 314 315 315 308 306 308 303 300 301 302 302 304 311 315 312 308 306 311 318 318 318 319 321 319 316 316 316 317 317 313 311 313 312 311 310 311 311 311 311 311 310 309 309
308 309 309 309 309 310 309 309 310 308 310 315 318 316 314 313 309 310 312 311 312 313 315 317 314 314 316 313 314 315 314 314 313 312 313 313 311 314 319 316 308 306 305 306 313 313 313 316 311 305 309 305 299 303 309 305 301 306 310 307 309 315 316 317 318 319 320 319 318 317 315 316 319 319 315 313 314 314 313 312 311 311 311 311 310 309 309 309
308 309 309 309 309 310 310 310 309 310 313 316 319 317 313 313 309 306 309 311 312 314 315 317 315 313 314 315 316 315 313 313 313 312 313 314 312 311 314 314 309 306 303 305 314 313 310 315 314 307 306 305 303 307 315 314 304 302 306 306 309 314 316 317 317 318 320 320 318 317 317 321 325 323 319 315 314 315 315 314 311 311 311 310 310 309 309 308
308 310 311 309 310 310 310 310 311 315 317 315 317 316 311 312 309 305 307 310 311 313 316 320 317 313 313 314 314 313 312 313 312 312 313 313 313 312 309 310 310 307 304 305 312 313 311 312 313 309 304 306 311 311 313 315 310 308 311 312 311 311 312 314 315 315 317 320 320 318 320 325 323 319 318 316 313 314 315 313 312 311 311 310 309 308 308 308
308 313 312 308 310 310 309 311 312 315 319 314 314 313 309 311 310 306 306 307 307 309 313 317 317 314 313 313 313 312 312 313 312 312 313 312 312 314 309 305 308 307 306 308 312 313 312 313 315 314 311 314 317 308 303 306 309 310 313 314 315 315 315 318 317 314 313 317 320 318 322 328 322 314 315 315 312 312 312 312 312 311 310 309 308 308 308 308
310 315 312 308 310 309 310 314 310 310 318 317 313 311 308 309 310 307 306 306 306 306 307 312 315 315 314 313 314 313 311 312 312 313 314 313 315 316 308 303 305 306 307 312 312 308 309 314 317 317 316 314 309 300 298 299 301 305 307 309 312 313 316 320 321 319 315 313 315 316 319 328 321 311 311 313 311 312 312 312 312 310 310 309 308 308 308 308
311 313 310 309 310 308 312 317 311 311 316 311 307 307 307 309 310 308 307 307 309 308 307 311 313 313 314 312 311 313 312 312 314 314 313 315 314 307 301 300 303 304 307 312 311 306 308 314 317 316 315 310 303 299 298 297 299 307 308 306 309 312 315 317 317 318 318 316 317 318 321 329 322 309 309 311 311 311 311 310 311 310 309 309 309 309 308 308
311 310 309 309 309 309 314 318 316 317 314 306 306 307 305 307 308 308 310 309 309 310 310 312 311 311 312 310 310 313 312 312 315 313 311 313 310 301 298 300 302 303 306 311 310 307 310 316 317 317 318 316 313 310 308 304 304 310 312 308 308 311 312 313 313 314 318 323 323 321 327 332 320 310 309 309 308 309 309 309 310 309 309 309 309 309 308 307
310 310 308 308 308 309 313 316 316 319 314 309 311 311 308 308 307 307 310 309 306 308 311 312 310 309 310 309 310 310 308 309 313 312 310 311 307 300 299 301 300 302 304 304 304 306 311 315 316 319 322 321 321 319 319 317 311 309 311 309 309 311 312 315 316 316 320 323 319 321 331 331 317 311 312 310 308 309 309 309 309 308 309 309 309 309 307 306
310 311 310 309 308 308 310 311 312 317 316 313 313 312 312 314 309 305 307 309 306 305 308 309 307 308 311 310 310 310 307 307 309 310 310 310 305 300 299 300 300 301 302 302 301 304 311 315 314 317 319 319 320 317 315 316 315 312 313 311 309 310 312 315 317 320 323 322 318 322 327 325 320 317 314 312 311 309 308 309 309 309 309 308 308 308 306 305
311 313 312 310 309 310 311 309 309 313 314 313 313 312 313 314 311 306 306 308 307 305 306 307 306 310 313 312 312 313 310 307 307 308 309 308 303 298 298 299 300 301 302 301 301 304 312 316 313 314 314 314 317 314 309 311 315 315 316 314 311 309 310 313 315 320 324 321 321 322 320 318 319 317 315 314 312 309 308 309 309 309 309 308 308 307 305 305
312 312 311 310 312 313 312 311 309 310 311 311 312 312 313 313 313 312 308 305 305 306 308 310 309 311 313 313 314 314 311 309 310 310 309 308 304 302 301 299 299 301 301 300 300 303 311 315 312 311 313 312 311 309 307 310 313 312 313 315 313 310 310 312 312 316 321 321 321 322 320 319 318 317 318 316 311 310 310 310 310 310 309 309 308 306 305 305
310 311 309 309 312 312 311 310 309 308 310 311 311 313 315 314 314 312 307 305 306 306 307 313 315 312 311 313 315 315 313 313 315 314 310 308 307 306 307 305 302 300 300 300 299 300 307 315 312 309 313 314 309 306 306 308 310 310 311 313 313 310 310 311 311 312 317 320 320 319 319 318 315 314 316 314 313 312 311 310 310 310 309 309 308 306 305 305
309 310 308 308 309 308 308 310 309 310 311 311 312 314 314 314 316 312 307 309 315 311 306 311 317 313 309 312 317 318 316 316 318 318 313 311 310 309 310 311 307 300 299 301 301 300 305 313 311 308 314 317 309 304 305 305 307 310 311 312 312 311 309 309 309 310 312 314 315 315 315 314 312 311 312 312 313 312 310 310 310 309 309 308 307 306 305 305
310 310 308 309 311 308 308 309 308 311 313 311 312 314 312 314 316 312 308 308 313 314 308 308 314 313 310 312 316 317 314 313 314 313 310 311 312 310 309 309 307 304 301 302 303 302 305 311 310 309 316 319 309 304 305 305 305 308 311 311 310 311 311 310 309 309 311 312 312 312 313 313 312 311 311 312 312 311 311 310 309 309 308 308 307 306 305 305
309 309 308 311 314 308 307 308 308 311 314 311 310 312 311 313 313 310 311 310 307 310 309 307 311 314 313 314 314 313 312 310 309 308 307 308 308 307 307 306 306 306 304 303 305 306 307 312 315 314 319 320 310 304 306 309 310 316 318 314 311 310 310 310 309 309 309 311 312 313 313 313 311 312 313 313 310 310 310 310 309 309 308 308 308 306 305 306
Wind_Speed
17 17 16 15 15 14 14 15 16 18 20 20 21 21 21 22 22 22 22 22 22 20 19 19 18 18 17 16 14 12 9 4 8 16 20 21 17 13 12 12 17 21 21 19 17 16 14 14 13 12 15 17 16 13 14 16 13 10 6 6 6 5 5 6 6 8 9 8 8 7 8 11 7 6 9 8 7 8 6 4 6 5 4 7 8 8 7 7
17 17 16 16 15 14 14 15 17 19 21 22 22 23 23 23 23 23 23 22 22 20 19 18 17 17 16 16 14 16 15 11 17 24 21 15 11 10 9 10 15 17 16 17 17 15 12 10 9 9 13 18 16 13 12 15 19 12 4 6 6 4 7 10 11 13 11 9 11 6 5 11 8 7 7 5 7 8 7 6 5 4 4 7 7 7 7 8
17 18 17 16 15 14 15 16 17 19 21 23 24 25 25 24 24 23 22 22 21 20 18 18 17 17 16 16 17 17 17 15 17 22 16 10 9 9 8 9 12 13 11 13 17 16 13 11 13 15 19 22 18 15 14 11 15 13 7 6 4 7 10 13 15 15 13 12 13 7 6 10 7 5 4 5 9 8 8 9 8 8 7 8 8 8 8 8
17 18 17 17 16 15 16 17 18 20 22 24 25 25 24 24 23 22 21 20 20 19 19 18 17 16 16 17 16 15 16 16 14 17 11 8 8 8 8 8 9 9 8 11 17 17 13 12 15 16 20 22 19 20 19 13 10 10 9 7 7 10 9 11 14 14 13 12 12 9 8 8 5 4 2 4 7 6 7 9 8 10 10 9 9 9 8 8
16 17 17 18 17 16 16 17 18 20 22 23 24 23 22 22 21 21 20 19 19 19 19 18 17 17 15 13 13 10 11 9 10 11 9 7 7 7 7 7 8 8 9 12 16 15 11 11 13 14 15 14 13 14 16 15 14 12 11 13 14 12 8 9 12 11 10 11 10 8 7 7 5 4 2 2 1 1 6 8 5 7 10 10 9 9 8 8
16 16 17 17 17 17 16 18 18 20 21 22 21 20 19 19 19 19 18 19 19 19 20 19 17 13 10 8 4 2 6 4 5 8 9 7 7 7 7 8 9 10 11 13 13 11 8 9 11 13 14 14 13 11 11 12 10 9 10 16 17 13 11 10 11 10 7 8 7 6 7 6 4 3 2 2 1 3 7 8 6 6 8 9 8 9 9 9
15 16 16 16 17 17 17 18 19 19 19 19 18 17 17 17 18 18 17 18 18 18 20 18 15 9 7 5 3 7 16 11 7 9 8 7 7 6 8 8 10 11 12 13 12 11 11 12 16 18 15 13 13 14 17 19 17 12 9 14 16 14 12 11 10 9 7 8 8 6 6 4 1 1 2 3 3 4 5 6 8 8 8 8 9 9 9 9
14 15 15 15 16 17 18 19 19 19 17 16 15 15 16 16 17 16 17 17 16 17 17 16 12 7 5 4 7 18 21 13 10 9 7 8 7 6 8 8 8 9 10 10 10 14 14 15 18 17 13 11 12 15 17 19 18 12 9 12 14 13 11 10 9 8 7 7 6 4 3 3 0 1 3 4 6 6 5 5 7 9 10 9 10 10 9 9
13 14 14 14 15 16 17 17 18 17 16 15 15 16 15 16 16 15 16 15 15 16 15 14 10 8 8 7 13 16 15 12 11 9 7 8 8 7 7 7 7 8 10 9 10 12 8 7 11 14 16 15 13 11 7 5 7 9 13 14 14 12 10 9 7 6 6 4 4 2 1 3 1 3 4 7 9 8 6 5 6 7 9 10 10 10 10 10
12 13 13 14 15 16 17 16 16 15 16 15 15 16 16 15 14 14 14 14 15 14 14 12 10 10 10 9 14 10 8 9 10 7 8 9 9 8 9 9 8 10 9 5 5 6 6 11 18 23 22 17 13 12 10 7 9 14 18 16 14 12 8 6 6 5 4 3 3 5 2 2 1 2 3 8 11 9 7 6 7 7 7 8 9 10 10 10
10 12 13 14 15 16 16 15 15 15 15 15 16 17 16 15 14 13 12 13 14 13 12 11 10 10 8 10 16 11 5 9 10 7 8 9 9 9 8 8 6 6 3 4 14 18 18 20 20 17 14 15 16 18 18 15 17 20 19 15 12 11 7 6 6 3 1 2 2 4 5 1 2 2 4 11 13 10 7 7 7 7 7 7 8 9 10 11
10 11 12 13 15 16 15 15 14 14 15 15 16 17 15 13 13 12 12 13 12 11 11 10 10 7 6 13 21 14 9 11 10 9 8 10 14 13 13 10 7 7 5 12 22 20 16 13 10 9 11 16 13 11 13 15 20 19 14 9 7 8 6 3 4 2 1 0 1 2 4 3 6 5 7 12 12 9 8 7 8 8 8 8 9 9 10 11
10 11 11 12 14 15 15 15 14 14 14 16 16 15 13 12 12 12 12 12 11 11 10 10 10 5 6 14 19 15 12 12 12 12 12 15 17 15 15 13 10 11 8 10 13 10 10 9 12 19 19 16 9 8 13 13 13 10 6 6 5 5 3 2 4 2 2 1 1 1 2 2 8 10 11 11 10 10 9 9 10 10 9 9 10 10 11 12
11 11 11 11 13 14 15 14 14 14 14 15 15 14 12 11 12 13 13 13 13 12 11 10 7 4 9 15 14 15 15 13 13 14 15 17 17 14 14 13 12 13 9 8 11 14 16 14 17 23 18 17 18 16 14 8 6 3 4 4 3 2 1 2 3 1 1 1 1 1 1 0 5 11 13 11 10 11 11 10 11 11 10 11 11 12 13 13
12 11 11 11 12 13 13 13 14 14 15 15 14 13 12 11 12 13 14 14 15 14 11 9 4 6 15 15 13 15 15 15 16 15 16 16 17 17 15 16 16 15 14 14 15 18 19 16 20 23 19 19 21 13 6 3 3 2 3 1 2 2 2 2 2 1 1 1 3 2 1 1 5 11 13 12 12 12 11 11 11 12 12 12 12 12 14 14
12 11 10 10 10 11 12 12 13 15 15 15 14 13 11 11 14 15 16 15 15 13 10 8 7 12 15 11 10 13 14 16 17 17 17 15 16 17 16 16 16 16 16 16 16 17 16 16 20 20 14 11 8 5 3 2 2 2 2 1 1 2 3 2 1 1 2 1 4 4 2 3 3 10 12 13 14 13 12 11 11 12 12 12 13 13 13 14
13 11 10 9 9 11 12 13 14 15 15 15 14 12 11 14 15 15 15 14 12 10 9 11 13 13 11 8 9 11 13 15 15 15 15 14 14 15 17 17 17 16 15 15 14 14 13 12 12 10 7 4 3 1 2 1 1 1 2 2 1 2 3 2 0 1 2 2 3 4 3 6 3 12 14 14 15 14 13 13 12 11 12 12 13 13 14 15
12 10 9 9 10 13 14 15 15 14 15 17 14 12 13 14 14 14 15 14 12 10 9 12 11 7 6 7 8 9 12 13 12 11 10 11 12 13 15 13 12 10 8 9 8 9 10 8 6 4 5 7 6 3 2 1 1 3 2 2 1 1 2 1 2 1 2 3 3 3 5 9 6 12 15 15 16 16 15 14 12 11 12 12 13 14 15 16
12 10 10 11 13 15 16 16 14 14 16 16 15 14 13 13 13 14 15 14 14 10 5 7 6 3 5 9 9 10 11 9 9 8 8 9 9 8 8 6 6 3 2 2 5 7 7 4 4 4 4 5 5 5 3 1 2 4 3 3 2 2 2 2 3 1 2 1 4 5 5 7 6 7 15 17 17 17 15 13 13 12 12 13 13 15 16 17
13 12 12 13 14 15 16 16 14 15 16 17 17 14 11 11 9 10 13 15 17 14 8 9 10 9 12 13 11 10 9 8 7 6 5 5 5 4 5 4 5 5 3 1 2 6 7 5 5 4 3 4 3 4 3 2 4 4 4 3 2 3 1 2 2 2 1 2 4 5 5 7 7 5 11 18 17 16 15 13 14 14 14 14 14 15 16 17
14 13 14 13 12 14 16 14 14 16 17 18 16 8 6 8 5 8 16 19 19 18 15 14 12 13 14 12 10 8 7 6 4 2 2 3 3 2 2 1 3 5 5 2 2 5 7 6 4 3 2 4 4 4 4 4 4 4 4 3 2 4 2 2 3 1 1 1 1 0 5 7 3 2 5 16 15 14 15 15 15 15 15 15 15 16 16 16
15 15 15 12 11 15 16 15 15 16 18 17 10 5 4 7 8 14 18 17 16 16 16 15 14 14 13 10 8 7 6 4 2 1 1 2 1 1 2 4 4 3 2 4 2 4 6 4 2 3 2 5 5 4 4 3 3 4 4 3 2 2 1 2 2 1 1 0 1 5 6 5 2 5 7 12 11 10 12 13 13 13 14 14 14 14 14 14
16 16 16 13 13 16 18 17 16 15 17 14 6 4 6 10 14 18 18 16 13 13 13 13 13 13 10 8 7 5 5 5 3 3 3 1 2 4 6 6 6 3 3 5 3 4 3 2 2 2 3 4 3 2 4 3 1 4 4 3 2 2 2 1 0 2 3 2 2 5 5 4 2 3 2 6 9 9 9 12 12 13 14 13 12 12 13 14
17 16 15 15 15 17 18 18 16 13 14 10 4 5 10 16 19 19 17 13 8 9 11 11 10 10 9 7 5 5 6 5 4 5 4 1 4 6 7 6 5 4 5 6 8 8 3 1 2 2 3 3 2 3 6 3 2 4 5 3 1 2 2 1 2 3 2 2 2 2 4 3 2 3 1 3 6 8 9 11 12 13 12 11 11 11 12 13
17 16 15 16 17 17 18 15 12 11 10 8 6 11 17 20 18 15 12 8 4 5 6 7 7 7 6 5 5 6 6 6 7 7 5 4 4 5 5 5 4 2 3 5 9 8 4 2 1 2 2 2 2 4 5 4 2 2 3 3 2 2 3 4 5 3 1 1 3 1 2 3 1 4 2 3 4 4 6 8 8 8 7 7 8 8 8 9
16 16 16 17 18 18 15 9 8 9 9 10 13 18 20 15 10 7 5 4 2 1 2 2 3 3 3 3 4 5 4 3 7 7 5 6 5 4 4 4 5 3 1 4 6 4 2 1 1 2 3 1 2 4 3 3 2 1 2 2 3 2 2 5 5 2 1 1 3 1 3 2 2 3 1 1 4 5 6 5 2 1 2 3 4 5 5 6
16 16 17 18 18 17 10 4 7 10 10 14 19 20 15 7 3 2 3 4 1 1 1 1 2 1 1 1 2 3 1 1 3 7 6 5 4 4 4 2 4 5 2 3 3 1 1 1 1 2 3 1 2 2 2 3 2 0 2 3 4 3 3 4 4 2 2 1 1 1 3 2 1 1 3 2 3 4 4 4 6 5 2 0 1 3 5 6
16 16 17 18 18 14 7 4 8 10 13 18 20 16 9 2 2 2 3 2 0 1 2 2 2 3 3 3 2 3 3 1 1 4 6 6 4 5 5 3 4 6 3 2 2 2 2 2 1 1 1 1 1 1 2 2 1 1 1 2 3 3 3 3 4 4 2 2 1 4 3 2 1 3 3 2 4 5 3 3 7 6 4 2 1 3 6 7
16 16 17 18 18 13 7 6 9 12 17 20 16 9 3 2 3 3 2 1 1 2 2 3 4 3 4 5 5 4 4 4 2 2 5 5 4 5 6 7 10 10 9 7 4 1 2 2 1 1 1 1 1 1 1 1 1 1 3 3 3 2 2 1 2 4 2 2 3 5 5 2 1 3 1 2 4 3 3 1 7 8 5 2 1 3 5 7
17 16 17 18 19 13 8 8 9 14 20 17 9 4 1 1 1 3 1 2 2 2 1 3 3 1 2 3 3 4 3 4 4 4 6 6 7 9 11 11 10 8 7 10 7 3 2 3 2 2 2 2 2 2 0 1 1 2 3 2 2 1 2 2 2 2 2 1 3 1 2 3 1 4 1 2 2 3 2 1 5 6 4 2 3 4 5 6
17 16 16 17 18 14 9 9 9 15 20 12 4 1 1 1 2 2 1 1 2 1 0 1 1 0 1 1 2 2 2 3 4 4 4 4 6 8 8 6 4 4 4 5 5 2 2 2 2 3 2 2 1 2 1 1 1 2 2 1 2 2 2 1 2 1 2 2 3 1 2 2 2 5 2 4 5 5 2 1 2 2 2 2 3 4 4 5
16 16 15 15 16 14 12 9 9 16 19 10 3 3 3 1 1 1 2 1 1 2 2 1 1 1 1 1 2 1 1 2 4 3 1 1 2 2 2 1 2 3 2 1 1 0 0 1 1 1 1 1 1 0 1 1 0 1 2 3 4 2 2 1 1 0 1 4 2 3 2 1 2 4 5 7 6 5 4 3 1 1 2 2 2 3 4 5
16 14 13 13 13 13 13 10 9 15 19 10 2 4 2 1 1 1 1 0 1 1 2 2 1 1 1 1 1 1 0 0 2 2 0 1 2 1 1 2 2 0 1 2 2 0 1 1 1 1 1 0 0 1 1 1 0 0 1 3 2 1 1 1 1 0 1 3 2 1 1 1 2 2 5 7 7 7 6 4 3 2 1 1 1 3 4 5
15 13 12 11 12 12 12 12 10 13 19 12 2 3 2 0 2 1 1 1 1 1 1 2 2 3 3 2 1 0 1 1 2 1 1 2 2 1 2 2 2 1 2 3 1 2 1 2 1 1 0 1 1 1 2 1 0 1 1 4 2 2 2 1 1 0 2 2 2 1 0 2 2 3 4 9 9 8 5 4 3 1 1 0 1 2 2 3
15 12 10 9 10 12 12 13 12 13 19 13 1 2 2 1 2 1 2 3 1 1 1 1 2 3 2 1 0 1 1 0 2 1 1 1 1 2 2 2 3 1 2 2 1 2 1 2 1 1 1 1 1 1 1 1 0 2 1 4 1 1 2 1 1 2 1 1 2 1 2 3 3 2 5 11 10 8 6 4 3 2 1 0 0 1 1 1
15 12 10 8 10 11 12 14 13 15 18 11 1 1 2 1 1 1 3 5 3 4 4 1 2 3 1 1 1 2 0 0 0 1 0 1 2 2 1 1 1 1 2 3 1 1 1 2 1 1 1 1 1 1 0 0 0 1 1 1 2 2 3 3 0 1 1 0 2 1 2 2 1 1 3 8 7 7 8 7 6 5 3 3 3 3 2 1
17 14 11 10 11 12 12 13 13 17 17 8 1 2 2 0 0 1 1 3 5 7 5 2 2 2 3 2 1 1 1 0 0 1 1 2 2 3 4 1 0 1 1 2 1 2 2 1 2 1 1 1 1 0 1 1 1 2 1 2 2 1 2 2 1 2 1 1 2 1 2 3 1 2 3 5 6 6 8 9 9 7 5 5 4 4 3 3
18 15 14 14 14 14 14 12 13 17 14 4 0 2 1 1 0 1 1 2 5 6 3 2 1 0 3 4 2 3 3 1 2 1 1 2 1 2 5 2 0 1 1 1 1 1 2 1 2 2 1 2 2 1 1 2 1 3 2 3 1 1 0 1 1 0 1 2 3 2 2 2 4 4 5 7 8 8 8 9 10 9 8 6 5 4 5 5
19 15 14 16 17 16 14 13 13 14 9 3 2 2 0 1 0 1 3 2 2 3 2 2 1 1 2 3 3 4 3 2 4 3 2 2 1 0 3 2 1 1 0 1 1 1 1 1 2 3 2 1 0 0 1 1 1 2 3 3 0 1 2 2 1 1 2 1 3 2 2 3 6 6 9 10 10 9 8 7 9 11 9 7 6 6 6 6
20 12 11 18 18 14 11 11 10 8 5 2 2 2 1 1 0 2 4 3 1 2 1 1 2 2 1 1 0 2 3 2 4 3 1 1 1 1 1 2 3 3 1 2 1 0 2 1 1 2 2 1 1 2 3 3 2 1 0 0 1 0 0 1 0 1 2 1 2 1 3 5 5 3 9 11 9 10 11 10 11 11 9 7 6 6 6 6
19 8 8 19 19 13 11 9 6 4 3 1 1 1 1 2 2 3 4 3 2 2 1 2 2 3 2 2 2 2 3 3 3 2 2 2 1 1 0 2 4 5 3 2 1 0 1 1 2 1 1 2 2 1 1 1 1 2 3 3 2 2 3 1 2 1 1 1 2 1 3 7 5 2 3 9 10 13 14 13 13 12 9 8 7 6 5 6
17 4 8 20 18 15 13 6 3 3 3 2 2 2 2 3 2 3 4 2 2 2 1 2 2 2 2 2 1 2 4 3 3 2 2 2 1 1 1 3 4 6 4 1 1 1 1 2 2 2 2 2 2 0 2 1 0 1 1 1 0 2 4 3 2 3 0 1 1 1 1 6 5 4 3 9 13 14 15 15 14 12 10 8 8 7 6 7
14 4 10 19 18 17 12 3 2 1 3 3 3 3 3 3 2 3 4 2 1 1 1 1 1 1 1 0 1 2 2 2 4 3 1 1 1 1 1 4 5 4 2 1 1 1 1 1 2 1 2 1 0 1 1 1 1 1 3 2 1 1 3 4 4 2 1 2 2 2 2 7 5 3 5 8 11 13 13 14 14 13 11 9 8 9 8 7
12 7 10 18 19 17 10 2 2 3 2 3 3 2 2 2 2 4 3 3 3 1 1 1 0 1 1 2 2 2 1 0 1 1 0 1 1 1 2 3 3 2 0 0 1 2 1 1 2 1 2 2 2 2 2 1 0 2 3 3 4 3 5 2 1 2 0 5 6 4 4 7 4 0 2 4 8 10 12 14 14 14 13 10 9 10 8 7
12 8 7 15 18 15 8 1 4 5 3 3 3 1 2 1 3 5 3 3 4 2 1 1 2 3 2 2 3 1 1 1 0 1 1 2 1 1 1 3 3 1 1 1 1 2 1 0 2 4 3 3 2 2 3 2 2 3 2 3 5 5 6 3 2 3 2 4 5 5 5 6 3 1 3 5 6 8 11 13 13 14 14 12 12 11 8 7
12 5 4 9 11 11 7 4 5 6 5 5 2 2 4 2 3 6 4 3 4 3 3 2 3 3 2 2 2 1 0 2 2 0 0 1 1 1 0 2 3 2 1 1 2 2 1 1 2 4 5 6 4 3 3 2 3 3 3 4 5 6 6 4 3 4 5 3 3 7 7 6 7 5 7 8 7 8 12 15 14 15 15 14 14 12 8 7
9 4 6 7 5 6 4 5 7 6 6 9 4 3 6 3 2 4 4 3 4 5 3 1 3 3 3 4 3 2 2 2 2 0 1 2 1 1 1 2 2 3 2 1 2 2 2 1 2 2 4 4 4 3 3 2 3 5 5 5 7 7 6 6 5 6 5 5 4 9 7 7 11 9 9 9 9 9 14 18 18 17 16 16 15 11 8 7
6 5 12 12 6 5 4 7 12 9 7 9 5 3 6 5 2 4 4 2 3 6 5 1 4 6 5 6 5 3 3 2 1 3 2 3 2 1 1 1 1 3 3 2 2 2 2 2 2 0 2 2 3 3 3 2 3 3 4 6 8 8 9 11 12 9 6 6 7 5 5 9 11 8 7 9 13 18 21 20 18 17 17 17 15 11 8 8
7 5 11 13 6 6 7 9 14 13 8 6 3 2 6 7 5 4 4 3 1 5 7 4 6 8 7 6 4 4 5 3 2 4 4 4 4 3 1 1 2 4 3 3 2 1 2 2 2 2 2 3 3 3 2 3 3 4 6 7 8 10 13 13 11 10 7 9 10 7 6 10 12 10 10 10 11 18 22 19 17 18 18 17 15 12 10 11
10 6 10 11 5 5 8 10 15 12 5 4 3 3 6 7 7 5 5 6 3 3 8 6 4 8 9 7 5 4 6 5 2 3 6 6 3 4 4 3 4 3 2 2 1 1 2 1 1 3 2 4 2 2 1 2 3 5 7 7 7 9 10 10 9 8 7 11 13 11 10 14 16 15 16 19 15 13 17 18 19 18 18 18 16 13 12 12
14 8 9 10 5 5 8 10 12 8 2 4 5 4 5 7 9 7 5 8 7 5 10 10 5 7 7 7 9 7 4 4 4 2 8 8 5 5 6 5 8 7 3 3 2 1 2 1 1 3 0 3 1 0 2 1 3 6 10 10 11 10 8 9 9 7 9 11 11 7 6 12 14 9 9 16 17 16 18 19 19 18 18 18 18 15 13 13
15 10 10 10 4 4 8 8 8 6 3 7 8 6 4 6 12 12 4 5 9 8 10 12 7 6 5 6 11 10 5 3 2 3 7 8 5 5 5 5 9 9 6 5 3 2 4 3 2 3 1 3 3 1 2 1 4 7 9 10 15 15 9 6 6 8 12 11 7 7 10 10 6 4 5 8 13 17 21 22 21 20 21 20 18 15 14 14
Wind_Direction
96 93 93 94 96 100 105 110 118 121 122 122 123 124 125 127 128 129 129 126 123 124 124 123 125 123 122 121 115 102 91 101 111 103 88 61 48 62 75 88 97 97 96 88 83 91 95 88 81 78 78 74 65 61 55 45 64 90 71 70 75 52 48 53 72 102 118 122 136 150 126 118 122 125 120 105 102 120 121 125 143 136 137 156 163 175 189 192
100 97 94 94 96 101 107 112 120 124 125 125 125 125 126 127 127 128 127 125 124 125 124 125 126 123 123 120 115 105 93 104 105 85 68 54 52 66 81 100 106 105 100 89 88 95 90 79 80 85 80 70 55 58 64 53 60 68 83 77 64 60 58 68 94 109 115 124 129 119 95 119 132 139 142 138 129 139 139 135 153 162 174 178 180 181 186 190
101 98 94 93 94 101 108 114 121 125 127 127 127 126 126 126 128 128 128 127 126 127 124 124 125 122 123 118 115 106 96 108 90 60 51 59 62 69 89 112 115 109 95 89 97 97 89 88 87 85 82 71 54 57 60 50 56 57 78 86 73 91 70 71 91 104 112 121 124 110 91 112 122 138 163 162 149 173 168 158 179 183 188 189 186 187 186 188
101 98 95 93 94 101 110 116 121 127 129 129 129 127 127 128 129 129 129 130 129 128 124 123 124 122 124 120 117 109 101 98 54 29 40 57 63 76 89 113 118 102 85 100 107 97 89 93 90 80 77 73 61 60 52 44 68 62 67 95 103 103 81 67 80 94 110 117 122 127 118 113 126 149 214 166 155 197 171 159 188 191 194 194 191 193 190 190
104 101 97 96 97 102 111 117 122 129 130 131 131 129 130 131 131 132 131 130 128 127 124 122 124 124 130 129 123 118 108 90 22 18 40 45 64 77 86 106 113 103 98 114 109 90 86 94 94 78 70 70 59 57 52 57 85 74 66 94 98 100 92 80 86 87 102 116 122 129 121 119 143 159 268 247 168 35 137 152 177 187 193 195 198 196 193 194
109 106 102 101 101 104 110 116 121 127 131 132 131 131 132 133 133 132 130 128 127 128 127 127 129 128 135 129 118 131 115 92 13 31 38 46 66 70 88 95 100 111 109 107 90 74 91 102 95 85 77 71 58 60 61 58 88 92 74 85 91 97 93 99 102 82 88 110 100 96 110 126 152 167 203 262 308 89 129 153 151 159 185 194 198 198 199 201
113 110 107 106 105 108 111 113 116 121 127 129 130 132 131 132 131 129 128 127 128 131 130 133 135 135 128 104 42 83 91 81 52 44 38 56 66 73 91 93 103 113 103 91 80 80 93 98 98 94 88 81 72 74 73 67 79 98 91 83 89 92 89 104 106 72 67 81 77 92 117 136 164 169 190 234 221 181 169 170 163 162 175 188 196 203 206 207
116 114 111 110 109 111 112 113 114 114 118 121 127 130 128 128 125 125 125 125 130 131 131 135 136 138 120 95 101 87 69 51 57 57 49 63 67 80 92 102 111 110 96 90 105 107 96 93 97 92 84 87 97 96 88 76 65 74 101 100 96 92 91 100 94 74 68 70 83 96 99 110 114 296 255 225 201 209 205 189 190 180 178 185 196 211 214 212
119 118 115 113 113 113 117 117 114 111 112 116 122 124 123 122 121 123 124 127 132 131 133 133 129 127 108 112 120 89 38 31 62 57 60 72 72 87 107 115 110 113 107 105 121 113 99 101 103 109 106 98 100 95 84 73 58 84 108 108 102 98 101 99 88 83 72 67 77 28 79 131 260 293 254 215 198 214 214 202 209 196 193 193 196 213 220 220
125 122 117 113 114 117 121 119 114 111 111 116 121 122 121 118 117 123 127 132 134 133 136 131 129 126 116 127 121 86 24 49 65 60 75 76 76 94 111 109 109 118 108 101 121 106 121 129 116 116 110 94 82 64 60 93 113 113 108 105 104 103 103 98 96 91 75 80 56 345 332 148 234 291 234 195 196 216 215 211 219 209 209 208 207 213 222 227
132 126 119 113 115 121 123 120 116 111 109 116 123 123 120 113 113 121 128 134 135 136 136 131 128 125 135 135 107 82 52 71 68 66 76 76 82 94 102 100 113 121 98 108 116 113 115 118 116 111 97 94 87 69 77 103 119 119 110 103 105 111 110 105 110 110 93 99 60 333 313 230 176 272 228 187 197 218 214 212 224 226 221 220 229 223 226 233
139 132 122 116 118 123 126 123 118 113 110 117 126 127 120 111 109 115 127 133 134 132 132 135 129 130 151 111 90 83 82 79 76 74 82 91 88 87 87 85 92 97 108 120 117 116 114 117 121 107 107 115 99 77 97 117 125 125 116 106 122 132 119 115 125 126 210 82 27 322 310 245 197 230 213 189 198 205 202 210 220 233 231 226 239 237 235 239
144 138 128 122 122 125 129 126 122 120 115 120 130 129 121 114 107 112 125 132 134 129 128 133 129 149 141 92 78 88 92 86 91 92 101 102 90 84 83 81 90 101 116 124 115 111 113 130 127 113 116 116 98 112 126 130 137 140 130 123 145 147 118 126 135 153 203 199 335 5 345 229 204 210 197 191 198 194 197 211 220 234 235 231 236 239 242 243
146 141 134 129 127 129 131 129 126 125 122 126 133 133 126 116 106 111 123 130 131 123 122 128 131 163 122 93 83 93 95 97 101 100 103 103 95 88 88 89 94 101 105 109 112 111 113 125 120 109 107 106 109 120 124 135 165 149 121 143 182 143 117 151 138 208 209 166 130 101 10 170 175 185 189 196 200 197 202 210 223 232 233 236 235 236 243 245
145 141 138 135 134 135 135 132 129 129 130 131 136 137 128 114 108 114 121 127 126 118 122 124 126 137 110 93 92 95 96 103 103 104 103 103 101 94 92 93 90 92 93 98 107 112 116 118 106 98 96 106 116 120 120 157 184 120 92 150 212 129 130 169 115 54 43 126 168 148 309 316 136 165 186 196 197 200 207 216 226 229 232 236 238 241 245 249
143 141 139 137 139 142 142 138 133 132 132 134 139 138 128 117 114 116 118 123 123 122 127 115 118 131 110 91 100 100 102 106 105 107 106 103 102 96 93 91 88 90 93 99 105 110 115 107 93 92 101 115 126 131 134 133 128 179 171 102 71 99 150 185 83 82 35 42 188 190 284 319 130 164 186 195 197 201 205 218 229 231 235 234 237 244 248 253
143 141 138 137 142 144 145 143 136 132 132 134 138 136 127 122 117 115 115 115 117 121 121 115 124 123 100 98 113 105 107 110 109 111 108 103 101 100 98 96 94 95 97 102 107 105 99 92 87 89 95 68 357 16 127 87 60 230 212 112 47 59 145 184 87 179 249 270 209 183 222 288 216 175 192 200 199 203 207 219 230 233 237 237 239 244 247 251
143 141 137 135 138 138 140 142 135 131 132 133 135 134 128 122 120 114 106 106 111 117 121 121 128 113 82 112 121 114 117 116 116 114 108 105 102 102 102 98 95 96 105 102 94 86 77 83 103 95 63 39 8 2 87 124 18 354 11 50 34 50 92 109 122 205 261 221 220 199 216 271 255 179 192 206 200 204 213 219 226 234 239 242 243 245 249 250
144 140 134 133 138 137 138 140 133 130 132 132 130 126 120 117 117 106 102 111 108 102 114 100 86 83 126 138 129 122 123 120 121 118 113 107 99 102 102 91 82 84 158 102 47 52 61 67 79 63 36 23 15 17 47 85 325 330 330 338 18 56 58 76 113 89 343 230 238 236 227 269 278 194 195 204 202 205 216 223 227 235 239 242 245 248 251 253
144 140 135 133 139 142 142 139 134 133 133 133 129 120 118 117 105 83 84 92 83 76 81 78 79 104 123 131 130 125 121 119 121 116 119 113 96 98 94 87 78 54 53 86 17 35 59 68 54 47 27 3 2 358 343 293 282 294 299 297 42 61 76 90 91 125 48 331 242 232 261 273 278 266 200 193 195 203 213 221 227 233 237 240 242 245 250 257
143 142 140 133 138 148 150 144 138 138 137 139 132 116 130 129 115 104 89 74 68 75 85 87 99 112 112 119 125 122 114 112 112 102 126 131 105 82 68 72 74 52 37 4 329 29 56 76 54 38 27 332 312 309 312 300 284 293 310 305 55 61 57 58 51 136 114 17 216 298 314 274 248 15 148 168 181 202 212 221 228 235 238 243 247 250 256 263
142 145 147 140 138 147 152 147 143 142 142 147 133 95 148 147 140 136 112 84 71 75 84 92 101 105 105 110 113 112 98 77 58 331 228 187 208 351 42 58 73 97 15 355 21 46 49 72 64 38 355 302 275 264 280 295 313 320 321 329 20 58 34 40 48 255 197 240 336 21 343 277 153 90 131 165 189 210 218 225 229 235 237 241 248 254 261 267
143 145 149 148 142 144 147 145 144 145 148 154 135 96 151 144 134 128 111 96 79 67 78 91 94 96 100 100 101 107 81 47 0 334 335 219 156 81 71 65 72 96 12 8 63 105 81 79 56 12 330 309 267 257 303 277 301 9 10 18 11 21 29 51 73 254 220 206 301 346 327 275 117 94 172 195 211 218 221 224 224 230 236 239 243 249 258 265
144 146 149 150 149 145 144 143 143 147 154 160 143 127 140 133 126 115 99 93 79 62 69 73 76 84 87 87 93 96 78 53 13 1 12 72 117 90 75 68 70 58 27 42 80 94 96 87 26 310 274 295 295 47 18 4 92 38 26 51 20 355 8 277 301 291 235 201 256 309 326 278 145 110 226 212 209 224 227 228 233 239 246 252 257 265 269 274
145 148 150 151 152 147 142 142 145 153 159 160 145 138 138 131 120 106 95 89 69 53 59 63 66 68 72 84 95 92 82 58 30 21 28 52 81 101 84 61 58 32 359 62 85 83 69 63 6 294 257 286 340 56 26 7 59 38 11 26 354 329 329 301 310 328 3 323 250 171 46 283 219 100 143 190 176 205 219 225 244 257 266 275 287 302 302 296
148 149 152 152 151 145 141 140 149 159 159 151 146 143 142 136 117 98 89 81 59 2 33 48 41 50 69 91 106 97 79 35 34 34 37 50 60 92 83 40 57 79 34 70 91 92 77 116 250 288 283 288 77 74 4 347 39 353 300 324 313 306 320 312 319 340 102 242 248 144 118 232 305 66 129 189 146 161 186 193 195 264 261 278 302 315 315 310
151 151 154 154 149 144 138 137 155 161 157 150 149 148 147 141 110 64 60 68 31 258 101 9 317 229 113 120 157 124 111 254 44 36 34 48 47 78 94 13 56 85 83 100 96 35 70 157 259 274 278 304 98 93 341 355 64 182 256 294 310 315 321 333 339 293 240 242 263 51 112 169 283 233 198 201 136 133 142 145 126 116 128 114 332 301 309 325
155 155 156 155 154 148 128 132 160 161 157 153 151 151 151 140 331 357 73 91 249 160 118 104 120 119 99 97 116 116 105 89 49 21 31 54 52 69 79 35 87 99 54 91 160 301 360 51 6 306 351 32 115 143 341 350 90 123 308 300 312 337 329 337 333 279 279 57 290 319 23 121 233 257 209 157 92 70 41 115 128 114 99 83 26 309 318 332
160 161 161 161 161 154 124 132 160 161 157 155 154 157 164 307 319 22 66 206 177 105 113 133 134 113 99 90 67 72 67 35 37 32 32 51 57 75 95 97 107 99 48 48 125 166 25 66 97 315 42 94 162 146 6 351 120 320 326 299 272 307 295 273 290 287 339 73 262 317 10 93 228 281 240 84 74 65 333 47 107 96 84 71 348 315 324 335
166 166 166 168 169 163 143 140 156 162 159 156 160 177 189 340 15 59 54 236 157 113 87 130 159 170 146 122 53 52 57 36 34 45 50 67 78 95 109 107 105 95 53 53 74 100 93 93 88 47 58 105 124 136 106 33 37 324 318 296 263 278 277 224 233 282 19 341 252 291 12 93 145 279 263 111 142 165 251 286 87 76 57 12 332 333 341 344
170 171 172 175 177 177 170 157 158 166 164 159 149 141 40 58 77 87 202 183 129 167 104 92 236 232 163 150 74 60 65 48 17 30 61 69 81 100 102 97 92 77 61 55 55 105 135 90 60 65 95 131 131 156 152 82 46 357 322 342 19 4 342 3 317 358 67 267 236 126 16 79 151 262 228 144 158 155 183 235 65 39 9 339 333 350 356 354
169 173 177 181 184 188 187 176 170 172 171 163 90 39 32 63 94 193 207 167 94 196 165 110 274 218 151 81 69 35 94 51 11 31 66 27 64 98 79 166 148 60 8 3 40 168 98 40 151 90 79 123 142 138 14 2 99 11 353 32 50 37 4 17 300 3 150 248 230 93 27 306 217 229 167 152 158 152 170 194 204 260 278 309 333 2 360 4
168 170 176 182 186 190 192 187 181 180 179 174 15 12 52 108 235 164 141 57 309 211 99 77 81 77 69 97 76 3 88 264 349 43 38 358 43 17 306 210 185 170 197 140 87 298 325 317 205 107 38 52 69 106 95 315 188 199 29 61 80 108 25 293 268 342 241 266 288 61 32 274 276 251 162 154 159 161 175 194 211 233 241 296 337 21 12 14
169 169 175 182 187 190 193 192 187 184 183 187 307 12 87 172 236 159 141 228 259 246 63 71 108 75 41 76 172 219 109 303 319 31 25 21 39 290 245 230 235 218 129 107 127 180 201 281 261 41 28 251 327 100 151 185 182 236 144 103 118 149 154 223 254 236 242 278 314 345 36 173 206 245 171 145 151 166 177 192 197 208 198 9 19 29 11 7
176 173 175 180 188 190 190 189 186 182 184 190 253 53 134 206 195 166 175 172 185 187 135 59 140 116 45 34 224 241 159 315 323 17 77 140 192 220 207 200 210 191 124 133 196 152 157 264 246 89 16 277 357 50 125 137 149 280 80 93 118 188 150 160 189 206 205 325 311 276 242 199 168 192 149 139 152 171 175 188 184 187 235 159 75 271 295 348
181 175 172 174 180 180 178 179 179 178 180 179 117 141 214 226 173 138 149 148 154 154 137 116 163 152 175 199 330 320 40 109 306 28 80 199 233 222 180 146 179 159 134 145 160 84 107 278 238 135 5 10 70 51 4 177 224 340 52 122 241 188 119 113 8 327 79 318 275 236 262 264 54 333 165 148 167 183 184 199 195 190 207 206 223 253 262 294
179 172 166 165 164 159 160 166 171 174 175 165 119 194 205 174 199 342 89 123 142 149 140 134 172 188 181 173 226 192 118 359 186 107 214 236 257 192 158 136 97 93 95 118 156 177 139 222 246 234 319 249 207 305 331 235 169 111 125 259 270 101 101 109 46 341 10 249 265 214 242 245 193 279 214 177 199 204 191 192 191 192 199 207 230 256 264 276
176 169 162 159 153 145 141 143 156 167 167 144 8 222 168 147 272 18 99 114 139 150 154 168 164 174 168 168 185 155 127 175 174 151 207 213 256 155 139 152 86 72 61 77 63 216 139 148 269 299 318 221 219 330 328 292 218 187 243 295 325 119 154 117 109 286 260 259 271 292 299 240 204 204 196 197 209 204 186 181 187 194 196 203 220 240 263 276
171 164 164 163 155 146 137 130 140 155 152 135 220 229 114 114 82 144 146 132 129 135 154 191 136 41 162 160 147 148 148 164 164 178 220 191 223 31 118 154 160 112 279 87 97 190 114 110 267 286 277 224 215 204 209 258 281 258 296 321 338 149 185 187 164 172 172 223 270 311 350 266 234 205 183 192 201 189 177 181 192 195 197 206 218 235 261 275
165 158 171 174 165 157 148 134 134 139 126 127 192 193 105 101 130 174 151 124 92 122 142 251 131 131 197 181 132 163 158 157 166 181 226 182 187 352 54 110 135 155 132 40 50 113 68 89 241 285 305 279 210 213 193 169 147 148 119 165 206 50 88 196 204 134 154 192 262 298 299 265 259 206 174 182 188 178 174 180 189 192 198 212 226 243 266 282
163 153 182 181 176 174 165 143 122 117 108 113 114 93 134 129 131 174 164 130 75 93 58 21 97 143 160 175 243 197 148 167 200 201 229 210 183 353 119 111 121 152 135 48 340 229 83 138 160 178 264 252 228 236 41 93 156 156 162 176 183 144 119 129 297 281 140 156 199 184 274 265 270 307 168 164 161 167 172 176 183 191 199 209 227 246 266 284
164 155 182 181 182 181 167 131 68 97 106 134 129 106 132 126 122 168 173 146 54 63 65 41 67 124 151 165 206 164 147 168 191 199 242 205 138 12 179 139 140 159 141 90 216 179 99 106 112 167 216 213 204 111 28 331 256 145 211 211 131 145 141 142 215 240 173 28 205 126 268 264 277 350 71 135 151 165 176 182 185 191 199 208 229 246 258 279
169 160 173 178 180 176 162 95 8 112 76 110 131 113 121 120 115 153 174 188 116 61 71 50 61 101 152 126 124 160 176 180 181 187 215 148 75 9 174 150 157 166 129 82 154 116 83 115 116 271 284 278 197 320 315 311 44 289 259 224 171 189 149 146 175 178 154 198 162 99 268 265 279 9 79 128 151 167 182 191 192 195 201 207 227 244 255 280
161 134 159 174 175 176 171 127 160 160 93 105 109 87 112 127 147 154 174 196 183 139 128 186 121 99 93 81 106 163 207 191 206 219 135 99 52 71 151 166 169 167 29 218 156 141 174 182 144 147 314 317 327 320 291 301 194 242 242 182 177 147 106 110 163 95 332 221 176 145 241 258 264 49 113 150 164 178 193 200 202 206 208 208 219 234 250 273
150 117 145 170 174 181 189 180 140 136 128 125 103 131 145 123 191 182 159 163 182 188 149 147 125 106 91 81 81 65 25 52 349 333 53 78 59 55 146 192 184 148 351 305 159 154 169 230 153 156 178 212 227 255 244 229 215 233 212 171 188 168 146 153 123 111 236 229 175 174 229 262 285 251 237 228 202 203 209 207 212 220 219 213 217 229 245 259
158 129 136 164 178 192 209 219 157 127 141 154 118 178 172 131 193 187 167 168 192 181 144 138 130 111 101 120 113 154 239 44 44 357 78 116 94 14 209 201 198 198 333 40 143 137 76 335 209 188 198 200 196 213 212 148 151 195 199 185 190 190 183 163 125 174 197 169 195 224 227 275 288 243 226 235 218 215 218 211 214 224 223 218 218 227 242 249
169 176 165 157 179 205 227 233 189 147 154 174 167 165 169 145 106 169 184 204 196 178 159 147 169 171 175 159 145 182 182 88 55 205 171 138 112 12 172 191 224 224 228 137 158 127 75 289 264 233 224 206 174 188 182 143 184 194 189 194 193 191 184 176 196 209 162 129 247 250 219 244 265 240 217 225 215 213 218 214 215 220 220 217 217 225 236 237
176 178 175 171 170 174 195 221 196 167 150 170 164 125 155 157 148 177 193 199 189 186 180 213 226 216 202 175 159 150 151 122 208 203 150 128 147 89 107 223 247 212 195 166 179 132 106 238 256 183 244 222 151 157 160 174 226 214 196 199 188 179 183 195 215 219 177 178 237 252 198 224 252 250 226 222 216 217 219 215 213 211 208 210 214 221 228 228
170 150 172 179 177 166 176 190 179 166 155 162 159 135 164 177 188 181 150 126 203 215 196 215 235 214 209 204 174 153 167 174 215 212 177 139 164 167 143 219 223 206 179 142 175 162 122 229 213 136 277 255 171 146 175 207 240 253 235 215 191 189 198 207 223 230 229 246 257 268 272 263 259 247 240 251 241 222 214 207 200 199 201 208 216 221 223 224
178 163 167 169 150 136 150 156 160 161 160 163 185 203 179 179 187 177 154 162 177 194 190 213 229 187 192 211 201 197 202 180 157 200 176 146 155 195 193 182 162 170 190 163 161 202 174 216 156 115 309 278 175 115 244 241 256 255 249 233 200 199 210 223 239 239 242 261 263 268 283 278 269 253 243 250 246 214 199 197 197 202 207 213 217 220 222 224
187 183 170 161 138 123 137 145 152 150 143 183 198 194 183 196 191 170 175 202 194 165 184 203 198 159 174 205 215 227 222 155 114 149 179 174 178 193 200 181 150 144 175 186 159 144 164 191 68 90 343 277 271 218 229 322 337 278 262 243 210 199 205 214 220 210 205 225 244 256 260 262 266 257 233 236 227 210 206 206 206 214 219 220 222 222 224 228
187 185 176 162 139 144 150 141 147 155 180 197 191 174 176 200 183 165 168 230 208 192 194 196 177 144 155 204 220 225 222 181 112 111 170 179 168 156 161 167 161 158 164 162 149 168 166 159 147 136 177 273 288 255 190 32 336 273 255 227 202 199 207 219 230 222 211 205 202 214 228 244 247 185 182 212 209 210 220 222 221 224 222 222 225 225 229 234